Location: Brantley
(31.5822°N, 86.2569°W)
Time: 03:04:51
(UTC+00:00)

Transit 2A Rocket - Pass Details

Date: 17 February 2026
Orbit: 583 x 900 km, 66.7° (Epoch: 5 March)

Event Time Altitude Azimuth Distance (km) Brightness Sun altitude
Rises 20:58:45 0° 196° (SSW) 3,411 9.1 28.9°
Reaches altitude 10° 21:01:12 10° 193° (SSW) 2,508 8.5 28.5°
Maximum altitude 21:07:01 66° 112° (ESE) 974 5.8 27.5°
Drops below altitude 10° 21:12:59 10° 32° (NNE) 2,575 7.3 26.5°
Sets 21:15:31 0° 29° (NNE) 3,509 7.9 26.1°
